Location: Charleston
(38.3500°N, 81.6330°W)
Time: 15:16:17
(UTC-04:00)

Daily predictions for brighter satellites

Satellite Brightness Start Highest point End
(mag) Time Altitude Azimuth Time Altitude Azimuth Time Altitude Azimuth
NOSS 3-4 (A) 4.3 21:12:39 10° NW 21:19:43 67° WSW 21:27:12 10° SSE
NOSS 3-4 (C) 4.2 21:12:44 10° NW 21:19:48 68° WSW 21:27:18 10° SSE
Milstar 3 Cent rocket 3.9 21:15:34 10° WSW 21:21:00 34° S 21:30:23 10° SE
SL-16 R/B 2.3 21:18:57 10° NNW 21:24:39 84° ENE 21:30:18 10° SSE
Resurs 01 Rocket 2.7 21:21:22 10° S 21:25:35 46° W 21:29:50 10° NNW
Meteor 2-15 Rocket 4.5 21:20:04 10° S 21:26:08 88° E 21:32:15 10° N
Cosmos 1939 Rocket 3.0 21:23:51 10° SSE 21:27:49 63° ENE 21:31:52 10° N
Cosmos 1459 Rocket 4.5 21:22:14 10° N 21:28:12 43° ENE 21:34:01 10° SSE
Cosmos 1908 3.9 21:24:49 10° N 21:28:27 38° ENE 21:32:03 10° SSE
CZ-3B R/B 3.5 21:32:24 10° SSW 21:34:56 55° SE 21:42:01 10° NE
Cosmos 1741 Rocket 4.3 21:30:04 10° SSW 21:35:22 76° WNW 21:40:42 10° NNE
USA 186 3.3 21:36:29 10° SSW 21:38:22 22° W 21:40:12 10° NW
Cosmos 2100 Rocket 4.2 21:33:37 10° N 21:39:52 59° E 21:46:08 10° SSE
H-2A R/B 3.9 21:37:29 10° ESE 21:40:56 18° ENE 21:44:25 10° NNE
Cosmos 1076 Rocket 3.5 21:37:32 10° S 21:41:51 65° E 21:46:11 10° NNE
ERBS 4.2 21:39:25 10° NNW 21:42:07 21° NE 21:44:47 10° E
GPS 2-05 Rocket1 3.4 21:39:37 10° SW 21:42:24 31° SSE 21:45:06 11° ESE
Cosmos 2173 Rocket 4.1 21:40:19 10° N 21:46:25 60° E 21:52:35 10° SSE
Lacrosse 5 2.4 21:42:28 10° NNW 21:47:24 50° NE 21:51:53 12° ESE
Cosmos 1818 3.9 21:42:36 10° NW 21:48:00 65° WSW 21:53:21 10° SSE
SPOT 5 4.2 21:44:58 11° ESE 21:48:48 26° ENE 21:53:00 10° NNE
Atlas Centaur 2 3.2 21:50:26 10° SW 21:52:18 13° SSW 21:54:05 10° S
Cosmos 2061 Rocket 4.2 21:46:52 10° N 21:53:13 64° E 21:59:35 10° SSE
Abrixas rocket 3.7 21:51:26 10° NW 21:54:20 29° NNE 21:57:15 10° E
Cosmos 1408 Rocket 3.7 21:50:17 10° S 21:54:28 54° E 21:58:42 10° NNE
YAOGAN 6 2.6 21:52:25 10° SSE 21:56:02 87° WSW 21:59:45 10° NNW
Cosmos 2221 3.1 21:55:37 10° NNW 21:59:57 61° W 22:04:16 10° S
Cosmos 2227 4.2 21:55:11 10° SSW 22:00:55 88° ESE 22:06:40 10° NNE
Envisat 4.0 21:56:12 10° S 22:01:02 45° W 22:05:54 10° NNW
Cosmos 1626 4.3 22:03:26 11° E 22:03:49 11° E 22:05:00 10° ENE
Meteor 1-29 3.8 22:03:17 10° N 22:06:40 52° WNW 22:10:01 10° SSW
Cosmos 1726 2.5 22:05:06 10° N 22:08:39 45° E 22:10:46 21° SE
Cosmos 1725 Rocket 4.4 22:05:44 10° N 22:11:44 47° ENE 22:16:09 18° SE
Cosmos 1763 Rocket 4.2 22:08:38 10° N 22:13:24 39° ENE 22:16:28 20° SE
Terra 3.8 22:11:39 11° E 22:13:58 15° ENE 22:16:42 10° NNE
Cosmos 1500 Rocket 4.4 22:13:37 20° SE 22:15:52 32° E 22:19:50 10° NNE
Cosmos 2263 Rocket 2.6 22:11:08 10° S 22:16:14 39° ESE 22:21:24 10° NE
Cosmos 332 Rocket 3.9 22:11:31 10° NNW 22:16:25 65° ENE 22:19:41 21° SSE
Tiangong 1 2.1 22:13:48 10° WNW 22:16:26 35° N 22:18:28 14° ENE
Cosmos 1486 Rocket 4.2 22:11:31 10° S 22:16:35 51° ESE 22:21:43 10° NNE
Cosmos 1802 Rocket 4.0 22:10:44 10° N 22:16:53 90° WNW 22:22:46 11° S
Helios 1B rocket 4.3 22:16:12 10° N 22:19:56 33° WNW 22:23:38 10° SW
Abrixas 2.2 22:18:03 10° WSW 22:20:45 79° NW 22:23:27 10° NE
Cosmos 1300 2.8 22:20:42 10° N 22:24:29 56° E 22:26:18 27° SSE
Cosmos 1766 Rocket 4.5 22:29:41 10° SSW 22:33:51 47° W 22:38:03 10° N
USA 234 3.2 22:29:00 10° NE 22:35:27 59° SE 22:41:52 10° SSW
SPOT 1/Viking Rocket 3.8 22:33:04 25° SE 22:35:51 54° ENE 22:40:53 10° N
Cosmos 1328 Rocket 3.4 22:33:32 10° N 22:37:53 81° E 22:40:04 29° SSE
Cosmos 2016 Rocket 4.1 22:31:41 10° N 22:37:54 74° W 22:43:03 15° S
Cosmos 1151 Rocket 3.6 22:33:51 10° N 22:38:01 42° E 22:39:31 31° SE
SL-14 R/B 3.3 22:36:06 18° S 22:38:59 81° W 22:42:56 10° N
MetOp-A 4.4 22:39:46 18° S 22:43:45 64° WSW 22:49:05 10° NNW
CZ-4C R/B 3.3 22:46:15 22° E 22:46:15 22° E 22:49:57 10° ENE
ERS-1 Rocket 3.8 22:41:50 14° S 22:45:56 46° W 22:50:47 10° NNW
Cosmos 1515 Rocket 3.5 22:41:57 10° N 22:46:18 71° E 22:47:59 36° SSE
Delta 2 Rocket 4.1 22:42:44 10° WSW 22:48:22 64° S 22:52:25 20° E
H-2A R/B 3.5 22:47:34 21° E 22:48:34 23° ENE 22:51:53 10° NNE
Cosmos 1844 Rocket 4.5 22:50:05 14° E 22:50:05 14° E 22:52:12 10° ENE
EO 1 Delta rocket 3.7 22:47:12 30° SSE 22:49:32 82° E 22:54:12 10° N
Cosmos 1743 Rocket 3.6 22:46:32 19° SSW 22:49:33 74° W 22:53:53 10° N
USA 245 3.4 22:48:40 35° S 22:50:04 70° W 22:54:24 10° NNW
ARGOS 3.3 22:46:39 23° S 22:50:08 73° WSW 22:55:34 10° NNW
Cosmos 2058 3.0 22:50:48 40° SSE 22:52:05 60° E 22:56:15 10° NNE
Cosmos 1603 4.3 22:46:46 10° NNW 22:52:14 51° WSW 22:55:40 22° S
Cosmos 1328 4.4 22:49:32 17° SSW 22:52:31 56° W 22:56:31 10° N
RESURS DK-1 3.4 22:48:49 10° NW 22:52:42 38° WSW 22:54:38 24° SSW
Cosmos 1455 3.3 22:53:50 10° NNE 22:57:12 28° ENE 22:57:20 28° E
Cosmos 2233 Rocket 3.9 22:55:00 10° N 23:01:12 73° E 23:04:08 33° SSE
Cosmos 1503 Rocket 3.9 23:00:29 29° S 23:03:05 70° ESE 23:08:14 10° NNE
Nimbus 7 Rocket 4.5 22:58:00 10° NNE 23:04:01 82° WNW 23:08:52 16° SSW
Cosmos 2228 Rocket 3.7 23:00:35 10° NNW 23:05:03 54° W 23:07:15 28° SSW
Cosmos 371 Rocket 3.9 23:00:34 10° NNW 23:05:14 50° WSW 23:07:24 29° SSW
Cosmos 1943 3.2 22:59:35 10° NNW 23:05:17 83° WSW 23:07:41 36° SSE
Cosmos 540 Rocket 4.0 23:02:06 10° N 23:07:02 44° ENE 23:08:29 35° ESE
CZ-4B R/B 4.5 23:04:59 10° NE 23:09:33 29° E 23:09:44 29° E
ERBS 3.6 23:15:46 10° WNW 23:18:29 31° WSW 23:18:29 31° WSW
H-2A R/B 2.5 23:17:24 32° SSW 23:19:47 60° W 23:25:10 10° NNW
Cosmos 1869 4.5 23:22:26 10° NNE 23:25:35 30° ENE 23:25:35 30° ENE
SPOT 5 4.2 23:24:13 21° SW 23:26:39 33° W 23:31:15 10° NNW
Sich 1 3.8 23:28:52 37° ENE 23:28:52 37° ENE 23:32:20 10° NNE
H-2A ROCKET BODY 3.4 23:24:29 10° SW 23:29:00 41° SSE 23:46:33 10° E
Cosmos 2151 4.1 23:27:50 24° SW 23:29:51 40° WNW 23:33:56 10° N
Lacrosse 5 3.3 23:26:01 10° WNW 23:30:05 25° WSW 23:31:05 23° SW
Abrixas rocket 3.9 23:28:04 10° WNW 23:29:56 27° W 23:29:56 27° W
Landsat 7 4.3 23:35:07 42° SSW 23:36:18 54° W 23:40:59 10° NNW
Cosmos 1626 3.3 23:38:04 34° WSW 23:38:45 37° W 23:42:15 10° N
Cosmos 1703 4.4 23:39:14 34° WSW 23:40:12 40° W 23:43:59 10° N
CZ-4C R/B 4.4 23:40:17 38° ENE 23:40:17 38° ENE 23:44:22 10° N
SL-19 R/B 4.2 23:37:21 10° NNE 23:42:47 86° WNW 23:44:40 44° SSW
Cosmos 1707 Rocket 3.6 23:43:53 10° N 23:48:18 70° ENE 23:48:18 70° ENE
deb Chang Zheng 4 3.5 23:44:35 10° N 23:48:59 80° WNW 23:49:17 74° SW
Cosmos 2278 Rocket 3.9 23:51:08 18° E 23:51:08 18° E 23:53:41 10° ENE
Terra 2.2 23:50:32 50° SW 23:51:14 55° W 23:55:55 10° NNW
Tiangong 1 3.9 23:49:21 10° WNW 23:49:35 12° WNW 23:49:35 12° WNW
